Location: Gloden
(48.4833°N, 15.3167°E)
Time: 15:27:23
(UTC+00:00)

Cosmos 1066 Rocket - Pass Details

Date: 15 December 2019
Orbit: 798 x 895 km, 81.2° (Epoch: 27 January)

Event Time Altitude Azimuth Distance (km) Brightness Sun altitude
Rises 05:17:47 0° 347° (NNW) 3,416 7.0 -13.4°
Reaches altitude 10° 05:20:14 10° 348° (NNW) 2,462 6.3 -13.0°
Maximum altitude 05:25:49 86° 260° (W) 830 4.1 -12.1°
Drops below altitude 10° 05:31:13 10° 172° (S) 2,387 7.0 -11.3°
Sets 05:33:34 0° 172° (S) 3,305 7.7 -11.0°
